Zurück zum Katalog

FENGYUN 1C DEB

AktivPO
NORAD 30686·DEBRIS·🇨🇳 China

Gestartet May 10, 1999 von Taiyuan Satellite Launch Center

Loading…

Nächste Überflüge (nächste 24 Stunden)

TLE

AktuellSource: Space-Track

Epoche: Sep 14, 2026, 14:18 UTC

1 30686U 99025AQU 26257.59597483  .00003242  00000-0  40728-3 0  9995
2 30686  99.0058 128.2384 0137399 340.2443  48.8567 14.76518595 36701

Verfolge FENGYUN 1C DEB in Echtzeit mit AllMySat

Download on the App Store